Location: Colonia Mina de C?rbuni
(46.1667°N, 22.7167°E)
Time: 15:32:33
(UTC+00:00)

Vanguard 1 Rocket - Pass Details

Date: 21 April 2024
Orbit: 650 x 4220 km, 34.3° (Epoch: 22 May)

Event Time Altitude Azimuth Distance (km) Brightness Sun altitude
Rises 17:47:24 0° 239° (WSW) 3,124 10.7 -4.5°
Reaches altitude 10° 17:49:41 10° 227° (SW) 2,371 9.9 -4.8°
Maximum altitude 17:54:22 29° 166° (SSE) 1,786 8.6 -5.6°
Drops below altitude 10° 18:01:34 10° 110° (ESE) 3,738 9.8 -6.7°
Enters shadow 18:02:43 - 107° (ESE) 4,131 10.1 -6.9°
